�N����,����,�~����,�C��,���x,�C��,����,���ϕ���,�ő�u�ԕ���,�ő厞����,���˗�,�I�_���x,�n�����x,�ő啗���N��,DTYPE
"23/10/18","00:10",0.0,13.9,85.4,1015.2,317.5,2.3,3.5,307.8,0.00,11.5,17.8,"00:01:32",1
"23/10/18","00:20",0.0,14.0,85.3,1014.9,330.0,2.5,3.6,340.5,0.00,11.6,18.0,"00:14:20",1
"23/10/18","00:30",0.0,13.8,85.4,1015.2,326.5,2.2,3.3,330.1,0.00,11.4,17.9,"00:25:24",1
"23/10/18","00:40",0.0,13.7,85.9,1015.2,329.9,2.2,3.5,340.9,0.00,11.4,17.7,"00:39:08",1
"23/10/18","00:50",0.0,13.8,86.2,1015.2,329.2,2.2,3.2,332.7,0.00,11.6,17.8,"00:42:00",1
"23/10/18","01:00",0.0,14.2,86.2,1014.9,321.9,2.2,3.6,337.1,0.00,12.0,17.8,"00:50:18",1
"23/10/18","01:10",0.0,14.4,85.8,1015.2,315.8,2.2,3.4,318.9,0.00,12.1,17.8,"01:00:50",1
"23/10/18","01:20",0.0,14.3,85.5,1015.2,311.5,1.7,3.3,308.0,0.00,11.9,17.9,"01:19:56",1
"23/10/18","01:30",0.0,14.0,85.4,1015.2,322.0,1.7,3.6,332.6,0.00,11.6,17.8,"01:21:04",1
"23/10/18","01:40",0.0,13.4,85.8,1015.2,321.3,1.7,2.5,324.5,0.00,11.1,17.7,"01:31:00",1
"23/10/18","01:50",0.0,13.0,86.3,1015.2,310.4,1.5,2.0,309.4,0.00,10.8,17.7,"01:45:02",1
"23/10/18","02:00",0.0,12.9,87.0,1015.4,303.3,1.8,2.5,325.0,0.00,10.8,17.7,"01:58:06",1
"23/10/18","02:10",0.0,12.7,87.5,1015.6,304.1,2.0,2.4,314.7,0.00,10.7,17.8,"02:00:48",1
"23/10/18","02:20",0.0,12.3,87.8,1015.2,300.9,1.6,1.8,325.5,0.00,10.4,17.7,"02:10:24",1
"23/10/18","02:30",0.0,11.8,88.3,1015.4,294.7,1.5,1.9,297.0,0.00,10.0,17.6,"02:21:46",1
"23/10/18","02:40",0.0,11.5,88.8,1015.4,294.6,1.5,1.9,312.4,0.00,9.8,17.6,"02:36:40",1
"23/10/18","02:50",0.0,11.8,89.2,1015.9,303.8,1.8,2.4,315.8,0.00,10.1,17.6,"02:46:00",1
"23/10/18","03:00",0.0,11.5,89.7,1015.4,306.6,1.5,2.7,309.0,0.00,9.9,17.6,"02:59:20",1
"23/10/18","03:10",0.0,11.9,90.4,1015.4,317.0,2.3,3.2,332.9,0.00,10.4,17.2,"03:04:40",1
"23/10/18","03:20",0.0,12.3,90.7,1015.4,327.6,2.8,4.0,339.1,0.00,10.9,17.4,"03:10:08",1
"23/10/18","03:30",0.0,12.2,90.9,1015.4,309.3,1.8,3.1,305.6,0.00,10.8,17.4,"03:21:26",1
"23/10/18","03:40",0.0,11.7,91.1,1015.9,296.0,1.3,1.7,270.8,0.00,10.3,17.3,"03:39:02",1
"23/10/18","03:50",0.0,11.5,91.6,1015.6,302.6,1.7,2.5,318.1,0.00,10.2,17.3,"03:48:56",1
"23/10/18","04:00",0.0,11.8,91.9,1016.1,323.9,2.5,3.3,307.4,0.00,10.6,17.5,"03:56:06",1
"23/10/18","04:10",0.0,11.7,92.0,1016.1,312.2,2.2,2.7,314.7,0.00,10.5,17.3,"04:08:08",1
"23/10/18","04:20",0.0,11.9,92.3,1015.9,316.2,2.7,3.6,325.7,0.00,10.7,17.3,"04:13:28",1
"23/10/18","04:30",0.0,12.1,92.3,1015.9,322.8,2.6,4.1,325.0,0.00,10.9,17.2,"04:23:40",1
"23/10/18","04:40",0.0,12.0,92.3,1016.1,294.3,2.0,3.2,325.6,0.00,10.8,17.2,"04:37:36",1
"23/10/18","04:50",0.0,11.6,92.4,1016.1,299.3,1.5,1.8,315.5,0.00,10.5,17.2,"04:40:36",1
"23/10/18","05:00",0.0,11.6,92.7,1016.1,316.6,2.0,2.7,332.2,0.00,10.5,17.2,"04:55:24",1
"23/10/18","05:10",0.0,11.4,92.8,1016.4,308.1,1.3,2.4,331.4,0.00,10.3,17.3,"05:00:02",1
"23/10/18","05:20",0.0,11.1,92.8,1016.4,308.9,1.3,2.1,323.8,0.00,10.0,17.1,"05:16:52",1
"23/10/18","05:30",0.0,10.9,93.1,1016.1,295.2,1.7,2.5,314.9,0.00,9.9,17.0,"05:28:56",1
"23/10/18","05:40",0.0,11.1,93.2,1016.1,306.3,2.1,2.6,327.2,0.00,10.1,16.8,"05:36:28",1
"23/10/18","05:50",0.0,11.7,93.4,1016.1,314.1,2.6,3.9,324.7,0.00,10.7,17.0,"05:48:26",1
"23/10/18","06:00",0.0,11.6,93.3,1016.6,296.6,1.8,2.8,289.4,0.00,10.6,16.9,"05:50:36",1
"23/10/18","06:10",0.0,11.6,93.5,1016.6,309.4,1.8,2.9,334.1,0.00,10.6,16.9,"06:05:22",1
"23/10/18","06:20",0.0,11.5,93.7,1016.4,304.8,1.8,2.2,313.5,0.00,10.6,16.7,"06:19:30",1
"23/10/18","06:30",0.0,11.9,93.8,1016.8,312.4,2.2,3.2,318.2,0.00,11.0,16.8,"06:24:36",1
"23/10/18","06:40",0.0,12.1,93.8,1016.8,311.3,2.1,2.9,329.5,0.00,11.2,16.7,"06:30:24",1
"23/10/18","06:50",0.0,12.3,93.6,1017.1,313.9,2.0,2.9,317.1,0.00,11.3,16.7,"06:41:36",1
"23/10/18","07:00",0.0,12.8,93.4,1017.3,306.5,1.2,2.1,333.2,0.01,11.8,16.8,"06:59:12",1
"23/10/18","07:10",0.0,13.2,93.0,1017.3,316.5,1.8,3.5,338.3,0.02,12.1,16.8,"07:06:06",1
"23/10/18","07:20",0.0,13.7,92.4,1017.5,325.7,1.5,2.4,330.8,0.04,12.5,16.6,"07:13:48",1
"23/10/18","07:30",0.0,14.3,91.5,1017.5,332.5,1.3,2.2,345.2,0.06,13.0,16.7,"07:20:48",1
"23/10/18","07:40",0.0,14.8,90.1,1017.8,324.4,1.5,3.3,343.5,0.08,13.2,16.7,"07:30:02",1
"23/10/18","07:50",0.0,15.3,88.2,1018.0,311.6,1.6,2.9,332.1,0.10,13.4,16.8,"07:40:08",1
"23/10/18","08:00",0.0,15.9,86.3,1018.2,285.0,1.2,2.6,335.7,0.12,13.7,16.7,"07:53:04",1
"23/10/18","08:10",0.0,16.2,84.1,1018.2,291.6,1.3,2.4,344.8,0.14,13.6,16.6,"08:02:32",1
"23/10/18","08:20",0.0,16.6,82.7,1018.0,281.4,1.2,2.4,266.4,0.17,13.7,16.7,"08:10:24",1
"23/10/18","08:30",0.0,16.8,80.9,1017.8,264.2,1.6,3.2,240.1,0.19,13.5,16.9,"08:28:24",1
"23/10/18","08:40",0.0,17.2,80.0,1018.0,263.7,1.3,2.5,237.1,0.21,13.8,16.8,"08:30:08",1
"23/10/18","08:50",0.0,17.5,78.3,1017.5,258.8,1.3,2.7,237.9,0.23,13.7,17.0,"08:46:08",1
"23/10/18","09:00",0.0,18.2,76.9,1017.5,253.0,1.0,2.4,236.4,0.25,14.1,16.9,"08:51:52",1
"23/10/18","09:10",0.0,18.6,73.7,1017.5,296.5,1.2,2.7,334.1,0.27,13.9,17.0,"09:07:36",1
"23/10/18","09:20",0.0,19.7,71.5,1017.3,238.9,0.6,1.6,232.4,0.29,14.4,17.1,"09:19:44",1
"23/10/18","09:30",0.0,19.7,70.0,1016.8,228.5,1.2,2.1,211.8,0.31,14.1,17.1,"09:20:32",1
"23/10/18","09:40",0.0,20.5,66.6,1016.6,347.8,0.6,1.3,18.9,0.32,14.1,17.1,"09:31:52",1
"23/10/18","09:50",0.0,21.1,65.1,1016.6,43.1,0.5,1.8,337.5,0.34,14.3,17.1,"09:46:16",1
"23/10/18","10:00",0.0,21.5,65.0,1016.4,184.3,0.6,1.4,117.5,0.35,14.7,17.3,"09:51:44",1
"23/10/18","10:10",0.0,21.9,64.8,1015.9,208.8,0.6,1.6,159.7,0.37,15.0,17.2,"10:07:28",1
"23/10/18","10:20",0.0,22.1,63.0,1016.4,164.1,1.1,2.2,120.6,0.38,14.8,17.3,"10:13:12",1
"23/10/18","10:30",0.0,22.4,61.2,1016.4,106.4,0.7,2.2,346.5,0.39,14.6,17.3,"10:29:36",1
"23/10/18","10:40",0.0,22.9,59.0,1015.6,168.0,0.5,1.6,339.8,0.40,14.5,17.7,"10:30:32",1
"23/10/18","10:50",0.0,23.4,58.5,1015.6,3.6,0.7,2.2,32.2,0.40,14.8,17.7,"10:42:48",1
"23/10/18","11:00",0.0,23.6,55.6,1015.6,185.2,0.8,2.5,213.6,0.41,14.2,17.8,"10:54:48",1
"23/10/18","11:10",0.0,23.8,53.2,1014.9,171.3,0.8,2.9,143.6,0.42,13.8,17.9,"11:08:16",1
"23/10/18","11:20",0.0,24.0,53.9,1014.7,188.5,1.2,2.7,220.0,0.42,14.1,17.7,"11:13:28",1
"23/10/18","11:30",0.0,24.5,52.8,1014.7,193.8,1.2,3.1,217.3,0.43,14.3,17.8,"11:27:20",1
"23/10/18","11:40",0.0,24.2,50.7,1014.7,172.1,1.6,3.4,192.6,0.43,13.4,18.1,"11:33:04",1
"23/10/18","11:50",0.0,24.3,51.8,1014.0,199.1,1.8,3.6,204.5,0.43,13.8,18.3,"11:44:00",1
"23/10/18","12:00",0.0,24.3,49.5,1013.8,192.2,2.0,3.6,221.7,0.42,13.1,18.3,"11:59:12",1
"23/10/18","12:10",0.0,24.9,49.7,1013.5,174.3,1.7,3.6,202.8,0.42,13.7,18.5,"12:02:16",1
"23/10/18","12:20",0.0,24.7,49.1,1013.3,176.3,2.0,5.6,214.0,0.41,13.3,18.6,"12:15:44",1
"23/10/18","12:30",0.0,24.8,50.3,1013.0,215.2,1.8,4.7,229.6,0.39,13.8,18.6,"12:23:12",1
"23/10/18","12:40",0.0,24.7,47.8,1013.3,268.7,1.2,3.3,211.7,0.29,12.9,18.6,"12:34:08",1
"23/10/18","12:50",0.0,25.0,45.0,1013.5,294.1,1.2,2.8,334.3,0.39,12.3,18.6,"12:47:12",1
"23/10/18","13:00",0.0,25.3,44.7,1013.5,241.6,1.0,2.2,235.2,0.39,12.5,18.7,"12:50:40",1
"23/10/18","13:10",0.0,26.1,43.9,1013.3,265.8,0.7,3.4,3.6,0.37,12.9,18.8,"13:06:56",1
"23/10/18","13:20",0.0,26.0,46.1,1013.5,147.5,0.8,1.9,82.2,0.36,13.6,18.8,"13:12:16",1
"23/10/18","13:30",0.0,25.8,44.1,1013.3,248.1,1.5,4.2,241.4,0.36,12.7,19.1,"13:29:04",1
"23/10/18","13:40",0.0,25.5,47.4,1013.3,196.8,1.6,3.4,208.6,0.34,13.5,19.2,"13:38:48",1
"23/10/18","13:50",0.0,25.2,47.4,1013.0,208.6,2.1,5.0,201.0,0.33,13.3,19.2,"13:46:40",1
"23/10/18","14:00",0.0,25.4,49.1,1012.6,212.5,2.1,5.1,210.3,0.31,14.0,19.2,"13:53:20",1
"23/10/18","14:10",0.0,25.1,47.0,1012.3,206.1,2.1,5.8,213.4,0.30,13.0,19.3,"14:09:20",1
"23/10/18","14:20",0.0,25.1,47.9,1012.3,192.6,2.2,4.2,207.0,0.28,13.3,19.5,"14:10:48",1
"23/10/18","14:30",0.0,24.5,48.5,1011.9,220.2,3.0,4.7,219.6,0.21,13.0,19.4,"14:20:56",1
"23/10/18","14:40",0.0,24.6,48.7,1012.3,227.5,2.3,3.6,243.2,0.22,13.1,19.2,"14:38:16",1
"23/10/18","14:50",0.0,24.2,49.3,1012.6,227.5,1.3,2.9,225.4,0.12,13.0,19.6,"14:43:12",1
"23/10/18","15:00",0.0,25.1,48.4,1012.1,232.6,1.1,2.8,231.9,0.20,13.5,19.7,"14:54:48",1
"23/10/18","15:10",0.0,25.0,47.0,1012.1,231.3,1.6,3.2,232.1,0.17,13.0,19.7,"15:02:00",1
"23/10/18","15:20",0.0,25.1,46.9,1011.9,220.2,1.0,2.1,240.4,0.14,13.0,19.7,"15:10:08",1
"23/10/18","15:30",0.0,25.2,45.6,1011.9,229.3,1.5,3.5,227.4,0.13,12.7,19.8,"15:25:20",1
"23/10/18","15:40",0.0,25.2,46.5,1011.9,207.9,0.6,1.4,232.7,0.11,13.0,19.6,"15:39:36",1
"23/10/18","15:50",0.0,25.3,47.6,1011.9,234.1,1.1,3.2,239.7,0.09,13.4,19.8,"15:42:48",1
"23/10/18","16:00",0.0,25.1,48.6,1011.9,241.2,0.6,2.0,335.0,0.07,13.6,19.7,"15:50:16",1
"23/10/18","16:10",0.0,24.7,49.6,1011.6,219.0,1.0,2.1,223.3,0.05,13.5,19.8,"16:04:56",1
"23/10/18","16:20",0.0,24.1,51.1,1012.3,206.3,0.6,1.3,235.8,0.03,13.4,19.5,"16:14:32",1
"23/10/18","16:30",0.0,24.1,53.0,1012.3,255.7,0.5,1.7,242.1,0.02,14.0,19.8,"16:21:44",1
"23/10/18","16:40",0.0,23.9,53.4,1012.3,277.5,0.5,1.2,244.8,0.01,13.9,19.6,"16:30:24",1
"23/10/18","16:50",0.0,22.9,56.7,1012.6,316.1,0.7,1.6,339.8,0.00,13.9,19.7,"16:49:36",1
"23/10/18","17:00",0.0,21.6,60.5,1012.6,321.5,1.2,2.1,330.1,0.00,13.7,19.7,"16:51:12",1
"23/10/18","17:10",0.0,20.8,63.4,1012.6,321.4,1.2,2.2,324.4,0.00,13.6,19.7,"17:06:48",1
"23/10/18","17:20",0.0,20.1,65.8,1012.8,303.4,1.2,1.9,327.4,0.00,13.5,19.7,"17:11:36",1
"23/10/18","17:30",0.0,19.5,67.4,1013.3,325.5,1.2,1.9,340.4,0.00,13.3,19.9,"17:23:20",1
"23/10/18","17:40",0.0,19.0,68.8,1013.3,296.7,1.0,1.4,314.6,0.00,13.2,19.6,"17:37:44",1
"23/10/18","17:50",0.0,18.8,69.9,1013.0,280.7,1.1,1.7,304.5,0.00,13.2,19.8,"17:40:16",1
"23/10/18","18:00",0.0,18.4,70.7,1013.3,287.1,1.1,1.4,327.4,0.00,13.0,19.5,"17:50:40",1
"23/10/18","18:10",0.0,18.0,71.7,1013.5,298.2,1.2,1.8,310.1,0.00,12.9,19.2,"18:05:52",1
"23/10/18","18:20",0.0,17.7,72.8,1014.0,301.2,1.2,2.1,335.2,0.00,12.8,19.2,"18:18:48",1
"23/10/18","18:30",0.0,17.4,73.5,1013.8,308.8,1.3,2.1,307.0,0.00,12.7,19.5,"18:20:40",1
"23/10/18","18:40",0.0,17.4,74.3,1014.0,315.3,1.7,2.8,336.9,0.00,12.8,19.1,"18:33:52",1
"23/10/18","18:50",0.0,17.4,74.7,1014.0,306.0,1.7,2.7,344.3,0.00,12.9,19.2,"18:41:04",1
"23/10/18","19:00",0.0,17.3,75.0,1014.0,296.0,1.6,3.4,324.4,0.00,12.9,19.3,"18:59:36",1
"23/10/18","19:10",0.0,17.1,74.7,1014.5,295.5,1.3,2.1,294.8,0.00,12.6,19.1,"19:00:56",1
"23/10/18","19:20",0.0,16.6,74.9,1014.5,277.5,0.5,1.0,300.1,0.00,12.2,18.9,"19:19:24",1
"23/10/18","19:30",0.0,16.5,76.0,1014.7,277.1,1.2,1.7,265.6,0.00,12.3,19.2,"19:25:46",1
"23/10/18","19:40",0.0,16.4,77.3,1014.2,317.9,1.1,2.2,336.6,0.00,12.5,19.0,"19:32:50",1
"23/10/18","19:50",0.0,15.8,78.5,1014.7,297.8,1.1,1.4,313.4,0.00,12.1,19.1,"19:46:42",1
"23/10/18","20:00",0.0,15.7,79.7,1014.2,296.4,1.6,2.6,306.6,0.00,12.2,18.8,"19:53:28",1
"23/10/18","20:10",0.0,15.8,80.1,1014.2,298.4,1.5,2.4,328.6,0.00,12.4,19.0,"20:06:06",1
"23/10/18","20:20",0.0,15.7,80.4,1014.2,304.5,1.6,2.4,325.8,0.00,12.4,18.9,"20:14:10",1
"23/10/18","20:30",0.0,15.4,80.7,1014.7,300.6,1.2,1.9,315.1,0.00,12.1,18.9,"20:20:20",1
"23/10/18","20:40",0.0,15.1,81.3,1014.7,281.1,1.0,1.4,266.9,0.00,12.0,18.6,"20:38:16",1
"23/10/18","20:50",0.0,14.7,81.7,1015.4,305.2,1.0,1.7,328.1,0.00,11.6,18.9,"20:40:08",1
"23/10/18","21:00",0.0,14.4,82.9,1014.9,301.1,1.3,1.7,316.0,0.00,11.6,18.7,"20:52:08",1
"23/10/18","21:10",0.0,14.2,83.9,1015.2,300.3,1.0,1.6,323.6,0.00,11.6,18.8,"21:04:32",1
"23/10/18","21:20",0.0,13.8,84.5,1015.4,292.1,1.0,1.2,306.0,0.00,11.3,18.5,"21:13:12",1
"23/10/18","21:30",0.0,13.8,85.3,1015.4,297.2,1.3,2.0,312.1,0.00,11.4,18.4,"21:26:36",1
"23/10/18","21:40",0.0,13.8,86.3,1015.4,308.0,1.1,1.9,319.4,0.00,11.6,18.5,"21:37:28",1
"23/10/18","21:50",0.0,13.5,86.9,1015.4,295.9,1.2,1.8,323.2,0.00,11.4,18.7,"21:41:28",1
"23/10/18","22:00",0.0,13.2,87.5,1015.6,307.4,1.5,1.9,316.0,0.00,11.2,18.3,"21:55:16",1
"23/10/18","22:10",0.0,13.3,88.3,1015.9,312.7,1.6,2.1,316.4,0.00,11.4,18.3,"22:08:36",1
"23/10/18","22:20",0.0,13.2,88.7,1015.6,307.5,1.6,1.8,312.7,0.00,11.4,18.1,"22:12:48",1
"23/10/18","22:30",0.0,13.2,89.2,1015.9,296.9,1.2,2.0,318.0,0.00,11.5,18.2,"22:20:50",1
"23/10/18","22:40",0.0,13.7,89.8,1015.6,286.2,1.3,2.1,314.3,0.00,12.1,18.2,"22:35:52",1
"23/10/18","22:50",0.0,14.2,89.9,1015.9,302.7,1.1,1.9,317.5,0.00,12.6,18.1,"22:48:24",1
"23/10/18","23:00",0.0,14.2,90.0,1015.4,298.9,1.2,1.8,316.8,0.00,12.6,18.0,"22:51:12",1
"23/10/18","23:10",0.0,14.4,90.2,1015.9,315.3,1.5,2.0,318.6,0.00,12.9,18.1,"23:09:36",1
"23/10/18","23:20",0.0,14.5,90.3,1015.6,288.9,0.7,1.4,310.0,0.00,13.0,18.3,"23:11:04",1
"23/10/18","23:30",0.0,14.5,90.5,1015.9,302.1,1.0,1.6,312.2,0.00,13.0,18.0,"23:25:00",1
"23/10/18","23:40",0.0,14.7,90.6,1015.6,303.7,1.3,1.6,318.7,0.00,13.2,18.0,"23:34:20",1
"23/10/18","23:50",0.0,14.9,90.7,1015.4,317.0,1.6,2.5,323.2,0.00,13.4,17.8,"23:48:04",1
"23/10/18","24:00",0.0,14.8,90.9,1015.4,298.1,1.1,1.7,317.7,0.00,13.4,18.1,"23:55:50",1
